Flag for Germany Weather past 2 weeks in Aalen, Baden-Württemberg, Germany

Now
61 °F

Partly sunny.


Feels Like: 61 °F
Forecast: 51 / 67 °F
Wind: 1 mph from Northwest

Location: Stoetten

Current Time: Sep 2, 2015 at 8:07:55 PM

Latest Report: Sep 2, 2015 at 7:00 PM


Visibility: 47 mi

Pressure: 29.97 "Hg

Humidity: 69%

Dew point: 51 °F

Location of AalenLocation

Historic Weather in Aalen — Graph

°F

Aalen temperature yesterday

Maximum temperature yesterday: 76 °F (at 11:00 AM)
Minimum temperature yesterday: 55 °F (at 11:00 PM)
Average temperature yesterday: 67 °F

Past Weeks' High & Low Weather Summary

 TemperatureHumidityPressure
High87 °F (Aug 30, 5:00 PM)100% (Aug 19, 9:00 PM)30.28 "Hg (Aug 19, 9:00 PM)
Low51 °F (Sep 2, 6:00 AM)31% (Aug 31, 7:00 PM)29.67 "Hg (Aug 24, 3:00 PM)
Average64 °F68%30.02 "Hg
* Reported Aug 18 7:00 PM — Sep 2 7:00 PM, Aalen, Weather by CustomWeather, © 2015

Note: Actual official high and low records may vary slightly from our data, if they occured in-between our weather recording intervals... More about our weather records

Advertising

Aalen weather history for previous 24 hours

 ConditionsComfort  
Time TempWeatherWind HumidityBarometerVisibility
7:00 PM
Wed, Sep 2
61 °FPartly sunny.1 mph69%29.97 "Hg47 mi
6:00 PM62 °FPartly sunny.No wind63%29.96 "Hg43 mi
5:00 PM63 °FPartly sunny.No wind57%29.96 "Hg43 mi
4:00 PM62 °FPartly sunny.1 mph64%29.97 "Hg43 mi
3:00 PM61 °FPartly sunny.2 mph65%29.99 "Hg43 mi
2:00 PM59 °FPartly sunny.2 mph70%30.00 "Hg37 mi
1:00 PM60 °FPartly sunny.2 mph69%30.01 "Hg22 mi
12:00 PM56 °FPartly sunny.N/A83%30.04 "Hg19 mi
11:00 AM55 °FPartly sunny.1 mph79%30.05 "Hg16 mi
10:00 AM53 °FPartly sunny.2 mph86%30.06 "Hg6 mi
9:00 AM52 °FFog.1 mph94%30.06 "Hg3 mi
8:00 AM51 °FFog.2 mph97%30.06 "Hg2 mi
7:00 AM51 °FFog.2 mph99%30.06 "Hg2 mi
6:00 AM51 °FFog.2 mph100%30.07 "Hg2 mi
5:00 AM52 °FLow clouds.3 mph100%30.07 "Hg1 mi
4:00 AM52 °FFog.N/A99%30.08 "Hg2 mi
3:00 AM53 °FLow clouds.N/A100%30.07 "Hg1 mi
2:00 AM52 °FLow clouds.N/A99%30.07 "Hg3 mi
1:00 AM54 °FLow clouds.N/A100%30.05 "Hg1 mi
11:00 PM
Tue, Sep 1
55 °FDrizzle. Low clouds.7 mph100%30.03 "Hg0 mi
10:00 PM56 °FLight freezing rain. Low clouds.N/A100%30.01 "Hg1 mi
9:00 PM57 °FRain. Dense fog.7 mph100%29.98 "Hg0 mi
8:00 PM57 °FLight rain. Dense fog.N/A100%29.96 "Hg0 mi
Weather by CustomWeather, © 2015

See weather overviewHow to use our weather pages